Time,TemperatureF,DewpointF,PressureIn,WindDirection,WindDirectionDegrees,WindSpeedMPH,WindSpeedGustMPH,Humidity,HourlyPrecipIn,Conditions,Clouds,dailyrainin,SoftwareType,DateUTC
2013-03-21 00:02:00,32.7,22.6,29.64,SW,228,0.0,0.0,66,0.00,,---,0.00,VWS V14.01,2013-03-21 06:02:00,
2013-03-21 00:08:00,32.5,22.8,29.64,SW,228,0.0,0.0,67,0.00,,---,0.00,VWS V14.01,2013-03-21 06:08:00,
2013-03-21 00:13:00,32.7,23.0,29.64,SW,228,0.0,0.0,67,0.00,,---,0.00,VWS V14.01,2013-03-21 06:13:00,
2013-03-21 00:19:00,32.9,23.2,29.64,WSW,250,0.0,0.0,67,0.00,,---,0.00,VWS V14.01,2013-03-21 06:19:00,
2013-03-21 00:24:00,32.7,23.3,29.61,WSW,252,0.0,0.0,68,0.00,,---,0.00,VWS V14.01,2013-03-21 06:24:00,
2013-03-21 00:30:00,32.7,23.3,29.61,WSW,252,0.0,0.0,68,0.00,,---,0.00,VWS V14.01,2013-03-21 06:30:00,
2013-03-21 00:35:00,32.7,23.7,29.61,WSW,252,0.0,0.0,69,0.00,,---,0.00,VWS V14.01,2013-03-21 06:35:00,
2013-03-21 00:42:00,32.7,23.7,29.61,WSW,252,0.0,0.0,69,0.00,,---,0.00,VWS V14.01,2013-03-21 06:42:00,
2013-03-21 00:48:00,32.7,23.7,29.61,South,186,0.0,0.0,69,0.00,,---,0.00,VWS V14.01,2013-03-21 06:48:00,
2013-03-21 00:53:00,32.7,23.7,29.61,SSW,211,0.0,0.0,69,0.00,,---,0.00,VWS V14.01,2013-03-21 06:53:00,
2013-03-21 00:58:00,32.7,24.4,29.61,SW,219,0.0,0.0,71,0.00,,---,0.00,VWS V14.01,2013-03-21 06:58:00,
2013-03-21 01:03:00,32.7,24.4,29.61,SW,219,0.0,0.0,71,0.00,,---,0.00,VWS V14.01,2013-03-21 07:03:00,
2013-03-21 01:09:00,32.7,24.4,29.61,SW,219,0.0,0.0,71,0.00,,---,0.00,VWS V14.01,2013-03-21 07:09:00,
2013-03-21 01:14:00,32.7,24.0,29.61,SW,219,0.0,0.0,70,0.00,,---,0.00,VWS V14.01,2013-03-21 07:14:00,
2013-03-21 01:19:00,32.7,24.0,29.61,SW,219,0.0,0.0,70,0.00,,---,0.00,VWS V14.01,2013-03-21 07:19:00,
2013-03-21 01:24:00,32.7,24.0,29.61,SW,219,0.0,0.0,70,0.00,,---,0.00,VWS V14.01,2013-03-21 07:24:00,
2013-03-21 01:30:00,32.5,23.5,29.61,SW,219,0.0,0.0,69,0.00,,---,0.00,VWS V14.01,2013-03-21 07:30:00,
2013-03-21 01:35:00,32.5,23.9,29.61,SW,219,0.0,0.0,70,0.00,,---,0.00,VWS V14.01,2013-03-21 07:35:00,
2013-03-21 01:41:00,32.5,23.9,29.61,SW,219,0.0,0.0,70,0.00,,---,0.00,VWS V14.01,2013-03-21 07:41:00,
2013-03-21 01:46:00,32.4,23.7,29.61,SW,219,0.0,0.0,70,0.00,,---,0.00,VWS V14.01,2013-03-21 07:46:00,
2013-03-21 01:52:00,32.5,23.9,29.58,SW,219,0.0,0.0,70,0.00,,---,0.00,VWS V14.01,2013-03-21 07:52:00,
2013-03-21 01:57:00,32.4,23.7,29.58,SW,224,0.0,0.0,70,0.00,,---,0.00,VWS V14.01,2013-03-21 07:57:00,
2013-03-21 02:02:00,32.5,23.9,29.58,SW,224,0.0,0.0,70,0.00,,---,0.00,VWS V14.01,2013-03-21 08:02:00,
2013-03-21 02:07:00,32.4,23.3,29.58,SW,224,0.0,0.0,69,0.00,,---,0.00,VWS V14.01,2013-03-21 08:07:00,
2013-03-21 02:13:00,32.4,23.3,29.58,SW,224,0.0,0.0,69,0.00,,---,0.00,VWS V14.01,2013-03-21 08:13:00,
2013-03-21 02:19:00,32.4,23.3,29.58,SW,224,0.0,0.0,69,0.00,,---,0.00,VWS V14.01,2013-03-21 08:19:00,
2013-03-21 02:24:00,32.2,23.2,29.58,SW,224,0.0,0.0,69,0.00,,---,0.00,VWS V14.01,2013-03-21 08:24:00,
2013-03-21 02:30:00,32.2,23.2,29.58,SW,224,0.0,0.0,69,0.00,,---,0.00,VWS V14.01,2013-03-21 08:30:00,
2013-03-21 02:35:00,32.2,22.8,29.58,SW,224,0.0,0.0,68,0.00,,---,0.00,VWS V14.01,2013-03-21 08:35:00,
2013-03-21 02:41:00,32.2,22.8,29.58,SW,224,0.0,0.0,68,0.00,,---,0.00,VWS V14.01,2013-03-21 08:41:00,
2013-03-21 02:47:00,32.2,22.8,29.58,SW,224,0.0,0.0,68,0.00,,---,0.00,VWS V14.01,2013-03-21 08:47:00,
2013-03-21 02:52:00,32.2,22.8,29.58,SW,224,0.0,0.0,68,0.00,,---,0.00,VWS V14.01,2013-03-21 08:52:00,
2013-03-21 02:58:00,32.2,22.8,29.58,SW,224,0.0,0.0,68,0.00,,---,0.00,VWS V14.01,2013-03-21 08:58:00,
2013-03-21 03:04:00,32.2,22.5,29.58,SW,224,0.0,0.0,67,0.00,,---,0.00,VWS V14.01,2013-03-21 09:04:00,
2013-03-21 03:09:00,32.2,22.5,29.58,SW,224,0.0,0.0,67,0.00,,---,0.00,VWS V14.01,2013-03-21 09:09:00,
2013-03-21 03:15:00,32.2,22.5,29.58,SW,224,0.0,0.0,67,0.00,,---,0.00,VWS V14.01,2013-03-21 09:15:00,
2013-03-21 03:20:00,32.2,22.5,29.55,SW,224,0.0,0.0,67,0.00,,---,0.00,VWS V14.01,2013-03-21 09:20:00,
2013-03-21 03:25:00,32.2,22.1,29.55,SW,224,0.0,0.0,66,0.00,,---,0.00,VWS V14.01,2013-03-21 09:25:00,
2013-03-21 03:31:00,32.2,22.1,29.55,SW,224,0.0,0.0,66,0.00,,---,0.00,VWS V14.01,2013-03-21 09:31:00,
2013-03-21 03:37:00,32.2,22.1,29.55,SW,224,0.0,0.0,66,0.00,,---,0.00,VWS V14.01,2013-03-21 09:37:00,
2013-03-21 03:42:00,32.2,22.1,29.55,SW,224,0.0,0.0,66,0.00,,---,0.00,VWS V14.01,2013-03-21 09:42:00,
2013-03-21 03:48:00,32.2,21.8,29.55,SW,224,0.0,0.0,65,0.00,,---,0.00,VWS V14.01,2013-03-21 09:48:00,
2013-03-21 03:53:00,32.0,21.9,29.55,SW,224,0.0,0.0,66,0.00,,---,0.00,VWS V14.01,2013-03-21 09:53:00,
2013-03-21 03:58:00,31.8,21.4,29.55,SW,224,0.0,0.0,65,0.00,,---,0.00,VWS V14.01,2013-03-21 09:58:00,
2013-03-21 04:04:00,31.6,21.6,29.55,SW,224,0.0,0.0,66,0.00,,---,0.00,VWS V14.01,2013-03-21 10:04:00,
2013-03-21 04:10:00,31.6,21.6,29.55,SW,224,0.0,0.0,66,0.00,,---,0.00,VWS V14.01,2013-03-21 10:10:00,
2013-03-21 04:15:00,31.8,21.8,29.55,SW,224,0.0,0.0,66,0.00,,---,0.00,VWS V14.01,2013-03-21 10:15:00,
2013-03-21 04:21:00,31.8,22.1,29.55,SW,224,0.0,0.0,67,0.00,,---,0.00,VWS V14.01,2013-03-21 10:21:00,
2013-03-21 04:26:00,31.6,22.0,29.55,SW,224,0.0,0.0,67,0.00,,---,0.00,VWS V14.01,2013-03-21 10:26:00,
2013-03-21 04:32:00,31.6,22.0,29.55,SSW,202,0.0,0.0,67,0.00,,---,0.00,VWS V14.01,2013-03-21 10:32:00,
2013-03-21 04:39:00,31.6,22.6,29.52,SSW,203,0.0,0.0,69,0.00,,---,0.00,VWS V14.01,2013-03-21 10:39:00,
2013-03-21 04:44:00,31.5,22.8,29.52,SSW,201,0.0,0.0,70,0.00,,---,0.00,VWS V14.01,2013-03-21 10:44:00,
2013-03-21 04:50:00,31.3,22.6,29.52,SSW,212,0.0,0.0,70,0.00,,---,0.00,VWS V14.01,2013-03-21 10:50:00,
2013-03-21 04:55:00,31.3,22.6,29.52,SSW,212,0.0,0.0,70,0.00,,---,0.00,VWS V14.01,2013-03-21 10:55:00,
2013-03-21 05:00:00,31.1,22.5,29.52,SSW,201,0.0,0.0,70,0.00,,---,0.00,VWS V14.01,2013-03-21 11:00:00,
2013-03-21 05:06:00,30.9,22.3,29.52,SSW,201,0.0,0.0,70,0.00,,---,0.00,VWS V14.01,2013-03-21 11:06:00,
2013-03-21 05:12:00,30.9,22.6,29.52,SSW,204,0.0,0.0,71,0.00,,---,0.00,VWS V14.01,2013-03-21 11:12:00,
2013-03-21 05:18:00,30.7,22.1,29.52,SSW,200,0.0,0.0,70,0.00,,---,0.00,VWS V14.01,2013-03-21 11:18:00,
2013-03-21 05:23:00,30.6,22.0,29.52,SW,214,0.0,0.0,70,0.00,,---,0.00,VWS V14.01,2013-03-21 11:23:00,
2013-03-21 05:29:00,30.6,22.3,29.52,SW,215,0.0,0.0,71,0.00,,---,0.00,VWS V14.01,2013-03-21 11:29:00,
2013-03-21 05:35:00,30.4,22.1,29.49,SSW,204,0.0,0.0,71,0.00,,---,0.00,VWS V14.01,2013-03-21 11:35:00,
2013-03-21 05:40:00,30.4,22.1,29.49,SW,214,0.0,0.0,71,0.00,,---,0.00,VWS V14.01,2013-03-21 11:40:00,
2013-03-21 05:46:00,30.4,22.1,29.49,SSW,200,3.6,3.6,71,0.00,,---,0.00,VWS V14.01,2013-03-21 11:46:00,
2013-03-21 05:52:00,30.2,22.3,29.52,SW,218,0.0,0.0,72,0.00,,---,0.00,VWS V14.01,2013-03-21 11:52:00,
2013-03-21 05:57:00,30.2,22.3,29.52,SSW,200,2.7,3.6,72,0.00,,---,0.00,VWS V14.01,2013-03-21 11:57:00,
2013-03-21 06:03:00,30.2,22.6,29.52,SSW,200,2.7,5.4,73,0.00,,---,0.00,VWS V14.01,2013-03-21 12:03:00,
2013-03-21 06:09:00,30.4,22.8,29.52,SSW,200,2.7,3.1,73,0.00,,---,0.00,VWS V14.01,2013-03-21 12:09:00,
2013-03-21 06:14:00,30.4,22.8,29.52,SSW,200,4.0,4.0,73,0.00,,---,0.00,VWS V14.01,2013-03-21 12:14:00,
2013-03-21 06:19:00,30.4,22.8,29.52,SSW,200,3.1,4.0,73,0.00,,---,0.00,VWS V14.01,2013-03-21 12:19:00,
2013-03-21 06:25:00,30.4,22.8,29.49,SSW,200,3.1,4.0,73,0.00,,---,0.00,VWS V14.01,2013-03-21 12:25:00,
2013-03-21 06:31:00,30.4,22.8,29.49,SSW,200,2.7,4.9,73,0.00,,---,0.00,VWS V14.01,2013-03-21 12:31:00,
2013-03-21 06:36:00,30.6,23.3,29.49,SSW,201,3.6,4.0,74,0.00,,---,0.00,VWS V14.01,2013-03-21 12:36:00,
2013-03-21 06:42:00,30.7,23.5,29.49,SW,219,0.0,0.0,74,0.00,,---,0.00,VWS V14.01,2013-03-21 12:42:00,
2013-03-21 06:47:00,30.6,23.6,29.49,SW,219,0.0,0.0,75,0.00,,---,0.00,VWS V14.01,2013-03-21 12:47:00,
2013-03-21 06:53:00,30.6,23.6,29.49,South,169,0.0,3.6,75,0.00,,---,0.00,VWS V14.01,2013-03-21 12:53:00,
2013-03-21 06:59:00,30.6,23.6,29.49,SSW,198,0.0,0.0,75,0.00,,---,0.00,VWS V14.01,2013-03-21 12:59:00,
2013-03-21 07:05:00,30.7,23.8,29.49,SSW,198,0.0,0.0,75,0.00,,---,0.00,VWS V14.01,2013-03-21 13:05:00,
2013-03-21 07:10:00,30.7,23.8,29.49,SSW,198,0.0,0.0,75,0.00,,---,0.00,VWS V14.01,2013-03-21 13:10:00,
2013-03-21 07:15:00,30.7,24.4,29.49,SSW,198,0.0,0.0,77,0.00,,---,0.00,VWS V14.01,2013-03-21 13:15:00,
2013-03-21 07:21:00,30.4,24.4,29.49,SSW,198,0.0,0.0,78,0.00,,---,0.00,VWS V14.01,2013-03-21 13:21:00,
2013-03-21 07:27:00,30.4,24.7,29.49,SSW,198,0.0,0.0,79,0.00,,---,0.00,VWS V14.01,2013-03-21 13:27:00,
2013-03-21 07:32:00,30.4,24.7,29.49,SSW,198,0.0,0.0,79,0.00,,---,0.00,VWS V14.01,2013-03-21 13:32:00,
2013-03-21 07:38:00,30.4,24.7,29.49,SSW,198,0.0,0.0,79,0.00,,---,0.00,VWS V14.01,2013-03-21 13:38:00,
2013-03-21 07:43:00,30.6,24.8,29.49,SSW,198,0.0,0.0,79,0.00,,---,0.00,VWS V14.01,2013-03-21 13:43:00,
2013-03-21 07:49:00,30.6,25.1,29.49,SSW,198,0.0,0.0,80,0.00,,---,0.00,VWS V14.01,2013-03-21 13:49:00,
2013-03-21 07:54:00,30.7,25.3,29.49,SSW,198,0.0,0.0,80,0.00,,---,0.00,VWS V14.01,2013-03-21 13:54:00,
2013-03-21 07:59:00,30.7,25.3,29.49,SSW,198,0.0,0.0,80,0.00,,---,0.00,VWS V14.01,2013-03-21 13:59:00,
2013-03-21 08:04:00,30.9,25.5,29.49,SSW,198,0.0,0.0,80,0.00,,---,0.00,VWS V14.01,2013-03-21 14:04:00,
2013-03-21 08:10:00,30.9,25.5,29.49,SSW,198,0.0,0.0,80,0.00,,---,0.00,VWS V14.01,2013-03-21 14:10:00,
2013-03-21 08:16:00,31.1,25.7,29.49,SSW,198,0.0,0.0,80,0.00,,---,0.00,VWS V14.01,2013-03-21 14:16:00,
2013-03-21 08:21:00,31.1,25.7,29.49,SSW,198,0.0,0.0,80,0.00,,---,0.00,VWS V14.01,2013-03-21 14:21:00,
2013-03-21 08:26:00,31.3,25.8,29.49,SSW,198,0.0,0.0,80,0.00,,---,0.00,VWS V14.01,2013-03-21 14:26:00,
2013-03-21 08:32:00,31.3,25.8,29.49,SSW,198,0.0,0.0,80,0.00,,---,0.00,VWS V14.01,2013-03-21 14:32:00,
2013-03-21 08:37:00,31.5,26.3,29.49,SSW,198,0.0,0.0,81,0.00,,---,0.00,VWS V14.01,2013-03-21 14:37:00,
2013-03-21 08:42:00,31.6,26.5,29.49,SSW,198,0.0,0.0,81,0.00,,---,0.00,VWS V14.01,2013-03-21 14:42:00,
2013-03-21 08:48:00,31.8,26.7,29.49,SSW,198,0.0,0.0,81,0.00,,---,0.00,VWS V14.01,2013-03-21 14:48:00,
2013-03-21 08:53:00,31.8,26.7,29.49,SSW,198,0.0,0.0,81,0.00,,---,0.00,VWS V14.01,2013-03-21 14:53:00,
2013-03-21 08:58:00,32.0,26.8,29.49,SSW,198,0.0,0.0,81,0.00,,---,0.00,VWS V14.01,2013-03-21 14:58:00,
2013-03-21 09:04:00,32.0,26.8,29.49,SSW,199,0.0,0.0,81,0.00,,---,0.00,VWS V14.01,2013-03-21 15:04:00,
2013-03-21 09:09:00,32.2,27.0,29.49,SSW,199,0.0,0.0,81,0.00,,---,0.00,VWS V14.01,2013-03-21 15:09:00,
2013-03-21 09:14:00,32.2,27.0,29.49,SSW,199,0.0,0.0,81,0.00,,---,0.00,VWS V14.01,2013-03-21 15:14:00,
2013-03-21 09:19:00,32.4,27.2,29.49,SSW,199,0.0,0.0,81,0.00,,---,0.00,VWS V14.01,2013-03-21 15:19:00,
2013-03-21 09:24:00,32.4,26.9,29.49,SSW,199,0.0,0.0,80,0.00,,---,0.00,VWS V14.01,2013-03-21 15:24:00,
2013-03-21 09:30:00,32.5,27.1,29.49,ENE,76,0.0,0.0,80,0.00,,---,0.00,VWS V14.01,2013-03-21 15:30:00,
2013-03-21 09:35:00,32.5,27.1,29.49,ENE,64,0.0,0.0,80,0.00,,---,0.00,VWS V14.01,2013-03-21 15:35:00,
2013-03-21 09:41:00,32.7,26.6,29.49,SSW,201,0.0,0.0,78,0.00,,---,0.00,VWS V14.01,2013-03-21 15:41:00,
2013-03-21 09:47:00,32.7,26.3,29.49,SSW,195,0.0,0.0,77,0.00,,---,0.00,VWS V14.01,2013-03-21 15:47:00,
2013-03-21 09:52:00,32.9,26.2,29.49,SW,222,0.0,0.0,76,0.00,,---,0.00,VWS V14.01,2013-03-21 15:52:00,
2013-03-21 09:58:00,32.9,25.9,29.49,SE,137,0.0,0.0,75,0.00,,---,0.00,VWS V14.01,2013-03-21 15:58:00,
2013-03-21 10:04:00,33.1,25.7,29.49,East,83,0.0,0.0,74,0.00,,---,0.00,VWS V14.01,2013-03-21 16:04:00,
2013-03-21 10:10:00,33.3,25.6,29.49,SSW,199,0.0,0.0,73,0.00,,---,0.00,VWS V14.01,2013-03-21 16:10:00,
2013-03-21 10:15:00,33.4,25.4,29.49,SSW,210,0.0,0.0,72,0.00,,---,0.00,VWS V14.01,2013-03-21 16:15:00,
2013-03-21 10:20:00,33.4,24.7,29.46,South,191,0.0,0.0,70,0.00,,---,0.00,VWS V14.01,2013-03-21 16:20:00,
2013-03-21 10:27:00,33.6,24.5,29.46,SW,217,0.0,0.0,69,0.00,,---,0.00,VWS V14.01,2013-03-21 16:27:00,
2013-03-21 10:33:00,33.6,24.5,29.46,SSE,150,0.0,7.6,69,0.00,,---,0.00,VWS V14.01,2013-03-21 16:33:00,
2013-03-21 10:39:00,34.0,24.5,29.46,South,171,0.0,2.7,68,0.00,,---,0.00,VWS V14.01,2013-03-21 16:39:00,
2013-03-21 10:44:00,34.2,24.7,29.46,North,353,2.2,3.6,68,0.00,,---,0.00,VWS V14.01,2013-03-21 16:44:00,
2013-03-21 10:50:00,34.5,24.7,29.46,WSW,237,0.0,0.0,67,0.00,,---,0.00,VWS V14.01,2013-03-21 16:50:00,
2013-03-21 10:55:00,34.9,24.7,29.46,NW,322,0.0,0.0,66,0.00,,---,0.00,VWS V14.01,2013-03-21 16:55:00,
2013-03-21 11:00:00,34.9,24.7,29.46,West,264,0.0,4.0,66,0.00,,---,0.00,VWS V14.01,2013-03-21 17:00:00,
2013-03-21 11:05:00,35.2,24.7,29.43,NNW,330,3.1,8.3,65,0.00,,---,0.00,VWS V14.01,2013-03-21 17:05:00,
2013-03-21 11:11:00,35.6,23.1,29.43,ESE,116,7.6,7.6,60,0.00,,---,0.00,VWS V14.01,2013-03-21 17:11:00,
2013-03-21 11:16:00,35.6,22.3,29.43,East,82,0.0,4.5,58,0.00,,---,0.00,VWS V14.01,2013-03-21 17:16:00,
2013-03-21 11:22:00,35.8,22.0,29.43,SW,224,0.0,4.9,57,0.00,,---,0.00,VWS V14.01,2013-03-21 17:22:00,
2013-03-21 11:27:00,36.0,22.2,29.43,WNW,287,0.0,2.7,57,0.00,,---,0.00,VWS V14.01,2013-03-21 17:27:00,
2013-03-21 11:33:00,36.1,22.4,29.43,ENE,59,0.0,0.0,57,0.00,,---,0.00,VWS V14.01,2013-03-21 17:33:00,
2013-03-21 11:38:00,36.3,22.6,29.43,NE,35,0.0,0.0,57,0.00,,---,0.00,VWS V14.01,2013-03-21 17:38:00,
2013-03-21 11:44:00,36.7,22.9,29.43,NNE,28,0.0,0.0,57,0.00,,---,0.00,VWS V14.01,2013-03-21 17:44:00,
2013-03-21 11:49:00,36.7,21.6,29.43,WSW,238,3.6,3.6,54,0.00,,---,0.00,VWS V14.01,2013-03-21 17:49:00,
2013-03-21 11:55:00,36.9,21.3,29.43,West,274,3.1,4.0,53,0.00,,---,0.00,VWS V14.01,2013-03-21 17:55:00,
2013-03-21 12:02:00,36.7,20.7,29.43,ENE,68,0.0,4.9,52,0.00,,---,0.00,VWS V14.01,2013-03-21 18:02:00,
2013-03-21 12:08:00,36.7,19.3,29.43,SW,214,5.8,5.8,49,0.00,,---,0.00,VWS V14.01,2013-03-21 18:08:00,
2013-03-21 12:13:00,36.1,15.3,29.43,SSW,207,8.7,9.6,42,0.00,,---,0.00,VWS V14.01,2013-03-21 18:13:00,
2013-03-21 12:18:00,35.4,17.7,29.43,NW,305,4.0,4.0,48,0.00,,---,0.00,VWS V14.01,2013-03-21 18:18:00,
2013-03-21 12:23:00,35.1,18.3,29.46,South,173,2.2,8.3,50,0.00,,---,0.00,VWS V14.01,2013-03-21 18:23:00,
2013-03-21 12:29:00,34.7,18.9,29.46,NE,55,0.0,0.0,52,0.00,,---,0.00,VWS V14.01,2013-03-21 18:29:00,
2013-03-21 12:34:00,34.7,19.3,29.46,SSW,192,0.0,0.0,53,0.00,,---,0.00,VWS V14.01,2013-03-21 18:34:00,
2013-03-21 12:39:00,34.7,19.3,29.46,ENE,75,2.2,6.3,53,0.00,,---,0.00,VWS V14.01,2013-03-21 18:39:00,
2013-03-21 12:45:00,34.5,19.2,29.46,SW,216,3.1,4.9,53,0.00,,---,0.00,VWS V14.01,2013-03-21 18:45:00,
2013-03-21 12:51:00,34.3,19.4,29.46,East,92,0.0,2.7,54,0.00,,---,0.00,VWS V14.01,2013-03-21 18:51:00,
2013-03-21 12:57:00,33.8,19.8,29.46,South,181,3.1,4.9,56,0.00,,---,0.00,VWS V14.01,2013-03-21 18:57:00,
2013-03-21 13:02:00,33.6,20.0,29.46,ESE,115,2.7,3.1,57,0.00,,---,0.00,VWS V14.01,2013-03-21 19:02:00,
2013-03-21 13:08:00,33.6,19.6,29.46,SE,136,2.2,4.9,56,0.00,,---,0.00,VWS V14.01,2013-03-21 19:08:00,
2013-03-21 13:13:00,33.8,19.8,29.46,ESE,108,2.7,3.6,56,0.00,,---,0.00,VWS V14.01,2013-03-21 19:13:00,
2013-03-21 13:19:00,33.8,18.5,29.46,ENE,66,6.3,6.3,53,0.00,,---,0.00,VWS V14.01,2013-03-21 19:19:00,
2013-03-21 13:24:00,34.0,20.0,29.46,SSE,147,0.0,0.0,56,0.00,,---,0.00,VWS V14.01,2013-03-21 19:24:00,
2013-03-21 13:30:00,34.3,21.1,29.46,South,178,2.7,7.6,58,0.00,,---,0.00,VWS V14.01,2013-03-21 19:30:00,
2013-03-21 13:35:00,34.3,21.9,29.46,ENE,73,0.0,3.1,60,0.00,,---,0.00,VWS V14.01,2013-03-21 19:35:00,
2013-03-21 13:41:00,34.7,22.2,29.46,WNW,299,0.0,4.0,60,0.00,,---,0.00,VWS V14.01,2013-03-21 19:41:00,
2013-03-21 13:46:00,34.9,22.0,29.46,ENE,64,2.7,3.1,59,0.00,,---,0.00,VWS V14.01,2013-03-21 19:46:00,
2013-03-21 13:52:00,34.7,20.2,29.46,SSW,198,5.8,8.1,55,0.00,,---,0.00,VWS V14.01,2013-03-21 19:52:00,
2013-03-21 13:58:00,34.5,16.4,29.46,South,171,19.7,19.7,47,0.00,,---,0.00,VWS V14.01,2013-03-21 19:58:00,
2013-03-21 14:03:00,34.5,16.9,29.46,SE,145,0.0,15.4,48,0.00,,---,0.00,VWS V14.01,2013-03-21 20:03:00,
2013-03-21 14:09:00,34.7,15.6,29.46,ESE,123,4.0,13.2,45,0.00,,---,0.00,VWS V14.01,2013-03-21 20:09:00,
2013-03-21 14:14:00,34.9,16.2,29.46,ENE,61,3.1,7.6,46,0.00,,---,0.00,VWS V14.01,2013-03-21 20:14:00,
2013-03-21 14:20:00,35.2,18.0,29.46,NE,46,3.1,8.1,49,0.00,,---,0.00,VWS V14.01,2013-03-21 20:20:00,
2013-03-21 14:25:00,35.2,18.5,29.46,NE,55,5.8,8.3,50,0.00,,---,0.00,VWS V14.01,2013-03-21 20:25:00,
2013-03-21 14:32:00,35.4,18.6,29.46,NW,319,3.6,4.9,50,0.00,,---,0.00,VWS V14.01,2013-03-21 20:32:00,
2013-03-21 14:38:00,35.1,13.8,29.46,NNE,33,4.9,15.4,41,0.00,,---,0.00,VWS V14.01,2013-03-21 20:38:00,
2013-03-21 14:44:00,34.9,15.7,29.46,WNW,291,3.1,4.5,45,0.00,,---,0.00,VWS V14.01,2013-03-21 20:44:00,
2013-03-21 14:49:00,35.1,15.4,29.46,NE,38,5.8,8.3,44,0.00,,---,0.00,VWS V14.01,2013-03-21 20:49:00,
2013-03-21 14:55:00,35.4,15.7,29.46,NE,46,2.7,11.0,44,0.00,,---,0.00,VWS V14.01,2013-03-21 20:55:00,
2013-03-21 15:00:00,35.4,16.7,29.46,NE,38,4.9,4.9,46,0.00,,---,0.00,VWS V14.01,2013-03-21 21:00:00,
2013-03-21 15:07:00,36.1,18.8,29.46,North,3,4.0,6.3,49,0.00,,---,0.00,VWS V14.01,2013-03-21 21:07:00,
2013-03-21 15:13:00,36.5,18.7,29.46,North,0,3.1,6.3,48,0.00,,---,0.00,VWS V14.01,2013-03-21 21:13:00,
2013-03-21 15:18:00,36.9,19.0,29.46,NNW,338,2.7,4.0,48,0.00,,---,0.00,VWS V14.01,2013-03-21 21:18:00,
2013-03-21 15:24:00,37.4,20.0,29.46,NW,309,4.0,4.9,49,0.00,,---,0.00,VWS V14.01,2013-03-21 21:24:00,
2013-03-21 15:30:00,37.6,19.2,29.46,North,2,0.0,8.3,47,0.00,,---,0.00,VWS V14.01,2013-03-21 21:30:00,
2013-03-21 15:35:00,37.6,15.5,29.46,NE,50,5.4,15.9,40,0.00,,---,0.00,VWS V14.01,2013-03-21 21:35:00,
2013-03-21 15:41:00,37.8,15.6,29.46,NE,47,3.6,8.1,40,0.00,,---,0.00,VWS V14.01,2013-03-21 21:41:00,
2013-03-21 15:46:00,37.4,12.9,29.46,ENE,57,5.8,13.2,36,0.00,,---,0.00,VWS V14.01,2013-03-21 21:46:00,
2013-03-21 15:52:00,37.4,15.3,29.46,North,353,4.9,6.3,40,0.00,,---,0.00,VWS V14.01,2013-03-21 21:52:00,
2013-03-21 15:58:00,37.6,15.5,29.46,NE,38,4.5,4.9,40,0.00,,---,0.00,VWS V14.01,2013-03-21 21:58:00,
2013-03-21 16:03:00,37.8,15.0,29.46,NNW,339,3.1,8.3,39,0.00,,---,0.00,VWS V14.01,2013-03-21 22:03:00,
2013-03-21 16:09:00,37.4,15.3,29.49,NW,305,4.0,5.4,40,0.00,,---,0.00,VWS V14.01,2013-03-21 22:09:00,
2013-03-21 16:14:00,37.8,16.2,29.49,NE,44,2.7,6.3,41,0.00,,---,0.00,VWS V14.01,2013-03-21 22:14:00,
2013-03-21 16:20:00,38.1,15.4,29.49,NNE,25,3.1,8.7,39,0.00,,---,0.00,VWS V14.01,2013-03-21 22:20:00,
2013-03-21 16:26:00,38.1,14.8,29.49,NE,35,3.1,8.7,38,0.00,,---,0.00,VWS V14.01,2013-03-21 22:26:00,
2013-03-21 16:32:00,37.9,12.7,29.49,NNW,348,3.6,6.3,35,0.00,,---,0.00,VWS V14.01,2013-03-21 22:32:00,
2013-03-21 16:38:00,38.1,13.5,29.49,ENE,57,3.6,6.3,36,0.00,,---,0.00,VWS V14.01,2013-03-21 22:38:00,
2013-03-21 16:43:00,38.3,15.5,29.49,North,11,4.9,4.9,39,0.00,,---,0.00,VWS V14.01,2013-03-21 22:43:00,
2013-03-21 16:49:00,38.3,11.0,29.49,SSW,211,8.3,11.0,32,0.00,,---,0.00,VWS V14.01,2013-03-21 22:49:00,
2013-03-21 16:55:00,38.1,11.6,29.49,North,353,2.7,15.0,33,0.00,,---,0.00,VWS V14.01,2013-03-21 22:55:00,
2013-03-21 17:00:00,38.1,11.6,29.49,NNE,32,4.0,10.1,33,0.00,,---,0.00,VWS V14.01,2013-03-21 23:00:00,
2013-03-21 17:06:00,37.9,10.7,29.49,NW,324,5.4,10.1,32,0.00,,---,0.00,VWS V14.01,2013-03-21 23:06:00,
2013-03-21 17:11:00,37.8,11.3,29.49,NNE,33,6.7,6.7,33,0.00,,---,0.00,VWS V14.01,2013-03-21 23:11:00,
2013-03-21 17:17:00,37.0,8.5,29.49,NE,41,3.6,8.1,30,0.00,,---,0.00,VWS V14.01,2013-03-21 23:17:00,
2013-03-21 17:23:00,36.7,9.6,29.52,NNE,24,8.1,8.1,32,0.00,,---,0.00,VWS V14.01,2013-03-21 23:23:00,
2013-03-21 17:28:00,36.7,9.6,29.52,NE,41,4.9,4.9,32,0.00,,---,0.00,VWS V14.01,2013-03-21 23:28:00,
2013-03-21 17:33:00,36.7,11.0,29.52,NE,37,3.1,3.6,34,0.00,,---,0.00,VWS V14.01,2013-03-21 23:33:00,
2013-03-21 17:38:00,36.7,9.6,29.49,NNE,29,3.6,5.4,32,0.00,,---,0.00,VWS V14.01,2013-03-21 23:38:00,
2013-03-21 17:44:00,36.5,10.1,29.49,North,349,3.6,7.6,33,0.00,,---,0.00,VWS V14.01,2013-03-21 23:44:00,
2013-03-21 17:49:00,36.3,8.6,29.49,SW,225,0.0,6.3,31,0.00,,---,0.00,VWS V14.01,2013-03-21 23:49:00,
2013-03-21 17:54:00,36.0,7.6,29.49,SW,220,8.1,8.3,30,0.00,,---,0.00,VWS V14.01,2013-03-21 23:54:00,
2013-03-21 18:00:00,35.8,8.1,29.49,SW,234,4.0,8.1,31,0.00,,---,0.00,VWS V14.01,2013-03-22 00:00:00,
2013-03-21 18:05:00,35.4,7.1,29.49,WSW,245,10.5,10.5,30,0.00,,---,0.00,VWS V14.01,2013-03-22 00:05:00,
2013-03-21 18:11:00,35.2,7.7,29.49,West,262,0.0,5.4,31,0.00,,---,0.00,VWS V14.01,2013-03-22 00:11:00,
2013-03-21 18:17:00,35.1,7.5,29.49,NE,36,6.3,6.3,31,0.00,,---,0.00,VWS V14.01,2013-03-22 00:17:00,
2013-03-21 18:22:00,35.1,7.5,29.52,WSW,238,2.7,8.1,31,0.00,,---,0.00,VWS V14.01,2013-03-22 00:22:00,
2013-03-21 18:28:00,34.9,8.0,29.52,NW,310,0.0,5.4,32,0.00,,---,0.00,VWS V14.01,2013-03-22 00:28:00,
2013-03-21 18:33:00,34.7,7.2,29.52,South,183,0.0,4.9,31,0.00,,---,0.00,VWS V14.01,2013-03-22 00:33:00,
2013-03-21 18:38:00,34.5,7.0,29.52,SSE,154,3.1,6.3,31,0.00,,---,0.00,VWS V14.01,2013-03-22 00:38:00,
2013-03-21 18:43:00,34.3,6.9,29.52,West,270,3.6,8.7,31,0.00,,---,0.00,VWS V14.01,2013-03-22 00:43:00,
2013-03-21 18:49:00,34.2,6.7,29.52,ENE,72,3.6,5.4,31,0.00,,---,0.00,VWS V14.01,2013-03-22 00:49:00,
2013-03-21 18:54:00,34.0,6.5,29.52,NNE,21,3.1,6.3,31,0.00,,---,0.00,VWS V14.01,2013-03-22 00:54:00,
2013-03-21 19:00:00,33.8,7.1,29.52,ENE,59,6.3,8.3,32,0.00,,---,0.00,VWS V14.01,2013-03-22 01:00:00,
2013-03-21 19:07:00,33.6,6.2,29.52,NE,51,7.6,11.0,31,0.00,,---,0.00,VWS V14.01,2013-03-22 01:07:00,
2013-03-21 19:12:00,33.4,6.8,29.52,ESE,115,3.1,5.4,32,0.00,,---,0.00,VWS V14.01,2013-03-22 01:12:00,
2013-03-21 19:18:00,33.3,5.9,29.52,East,83,2.7,4.0,31,0.00,,---,0.00,VWS V14.01,2013-03-22 01:18:00,
2013-03-21 19:24:00,33.1,5.8,29.52,NE,47,6.3,6.3,31,0.00,,---,0.00,VWS V14.01,2013-03-22 01:24:00,
2013-03-21 19:29:00,32.9,5.6,29.52,NNE,20,2.7,6.3,31,0.00,,---,0.00,VWS V14.01,2013-03-22 01:29:00,
2013-03-21 19:35:00,32.7,5.4,29.52,NNW,341,3.6,5.8,31,0.00,,---,0.00,VWS V14.01,2013-03-22 01:35:00,
2013-03-21 19:40:00,32.5,6.0,29.52,NE,41,4.9,5.4,32,0.00,,---,0.00,VWS V14.01,2013-03-22 01:40:00,
2013-03-21 19:45:00,32.5,5.3,29.52,East,85,3.1,4.0,31,0.00,,---,0.00,VWS V14.01,2013-03-22 01:45:00,
2013-03-21 19:52:00,32.4,5.1,29.52,ESE,118,2.7,5.8,31,0.00,,---,0.00,VWS V14.01,2013-03-22 01:52:00,
2013-03-21 19:57:00,32.2,5.0,29.52,SSW,194,0.0,3.1,31,0.00,,---,0.00,VWS V14.01,2013-03-22 01:57:00,
2013-03-21 20:03:00,32.2,5.0,29.52,East,99,0.0,0.0,31,0.00,,---,0.00,VWS V14.01,2013-03-22 02:03:00,
2013-03-21 20:08:00,31.8,4.6,29.52,East,97,0.0,0.0,31,0.00,,---,0.00,VWS V14.01,2013-03-22 02:08:00,
2013-03-21 20:13:00,31.5,4.3,29.52,ENE,62,0.0,0.0,31,0.00,,---,0.00,VWS V14.01,2013-03-22 02:13:00,
2013-03-21 20:18:00,31.3,4.9,29.52,NE,52,0.0,0.0,32,0.00,,---,0.00,VWS V14.01,2013-03-22 02:18:00,
2013-03-21 20:24:00,30.9,4.5,29.52,NE,42,0.0,3.6,32,0.00,,---,0.00,VWS V14.01,2013-03-22 02:24:00,
2013-03-21 20:29:00,30.9,3.8,29.52,East,82,0.0,0.0,31,0.00,,---,0.00,VWS V14.01,2013-03-22 02:29:00,
2013-03-21 20:35:00,30.9,3.8,29.55,SSE,149,0.0,0.0,31,0.00,,---,0.00,VWS V14.01,2013-03-22 02:35:00,
2013-03-21 20:41:00,30.7,3.7,29.55,SE,129,0.0,0.0,31,0.00,,---,0.00,VWS V14.01,2013-03-22 02:41:00,
2013-03-21 20:46:00,30.6,3.5,29.55,ESE,119,0.0,0.0,31,0.00,,---,0.00,VWS V14.01,2013-03-22 02:46:00,
2013-03-21 20:53:00,30.2,3.2,29.55,East,99,0.0,0.0,31,0.00,,---,0.00,VWS V14.01,2013-03-22 02:53:00,
2013-03-21 20:58:00,30.2,3.2,29.55,SSE,159,0.0,3.6,31,0.00,,---,0.00,VWS V14.01,2013-03-22 02:58:00,
2013-03-21 21:03:00,30.0,3.1,29.55,South,181,4.0,4.9,31,0.00,,---,0.00,VWS V14.01,2013-03-22 03:03:00,
2013-03-21 21:10:00,29.7,2.7,29.55,ESE,113,0.0,2.7,31,0.00,,---,0.00,VWS V14.01,2013-03-22 03:10:00,
2013-03-21 21:15:00,29.7,2.7,29.55,ESE,104,2.7,3.1,31,0.00,,---,0.00,VWS V14.01,2013-03-22 03:15:00,
2013-03-21 21:20:00,29.5,2.6,29.55,ESE,104,0.0,0.0,31,0.00,,---,0.00,VWS V14.01,2013-03-22 03:20:00,
2013-03-21 21:26:00,29.3,3.1,29.55,ESE,104,0.0,0.0,32,0.00,,---,0.00,VWS V14.01,2013-03-22 03:26:00,
2013-03-21 21:31:00,29.1,3.0,29.55,ESE,104,0.0,0.0,32,0.00,,---,0.00,VWS V14.01,2013-03-22 03:31:00,
2013-03-21 21:37:00,28.9,2.8,29.55,ESE,104,0.0,0.0,32,0.00,,---,0.00,VWS V14.01,2013-03-22 03:37:00,
2013-03-21 21:42:00,28.8,3.3,29.55,ESE,104,0.0,0.0,33,0.00,,---,0.00,VWS V14.01,2013-03-22 03:42:00,
2013-03-21 21:48:00,28.6,4.4,29.55,ESE,104,0.0,0.0,35,0.00,,---,0.00,VWS V14.01,2013-03-22 03:48:00,
2013-03-21 21:54:00,28.4,4.9,29.55,East,85,0.0,0.0,36,0.00,,---,0.00,VWS V14.01,2013-03-22 03:54:00,
2013-03-21 21:59:00,28.2,5.3,29.55,East,85,0.0,0.0,37,0.00,,---,0.00,VWS V14.01,2013-03-22 03:59:00,
2013-03-21 22:00:00,28.2,5.3,29.55,East,85,0.0,0.0,37,0.00,,---,0.00,VWS V14.01,2013-03-22 04:00:00,
2013-03-21 22:01:00,28.2,4.7,29.55,East,85,0.0,0.0,36,0.00,,---,0.00,VWS V14.01,2013-03-22 04:01:00,
2013-03-21 22:03:00,28.0,4.5,29.55,East,86,0.0,0.0,36,0.00,,---,0.00,VWS V14.01,2013-03-22 04:03:00,
2013-03-21 22:05:00,27.9,4.4,29.55,East,85,0.0,0.0,36,0.00,,---,0.00,VWS V14.01,2013-03-22 04:05:00,
2013-03-21 22:10:00,27.3,3.9,29.55,East,85,0.0,0.0,36,0.00,,---,0.00,VWS V14.01,2013-03-22 04:10:00,
2013-03-21 22:15:00,27.1,4.3,29.55,East,85,0.0,0.0,37,0.00,,---,0.00,VWS V14.01,2013-03-22 04:15:00,
2013-03-21 22:20:00,27.0,4.8,29.55,East,86,0.0,0.0,38,0.00,,---,0.00,VWS V14.01,2013-03-22 04:20:00,
2013-03-21 22:26:00,26.8,4.6,29.55,East,86,0.0,0.0,38,0.00,,---,0.00,VWS V14.01,2013-03-22 04:26:00,
2013-03-21 22:31:00,26.6,5.0,29.55,East,86,0.0,0.0,39,0.00,,---,0.00,VWS V14.01,2013-03-22 04:31:00,
2013-03-21 22:37:00,26.6,5.0,29.55,East,86,0.0,0.0,39,0.00,,---,0.00,VWS V14.01,2013-03-22 04:37:00,
2013-03-21 22:42:00,26.4,4.8,29.55,East,80,0.0,0.0,39,0.00,,---,0.00,VWS V14.01,2013-03-22 04:42:00,
2013-03-21 22:47:00,26.2,4.7,29.55,ENE,73,0.0,0.0,39,0.00,,---,0.00,VWS V14.01,2013-03-22 04:47:00,
2013-03-21 22:52:00,26.1,3.9,29.58,ENE,73,0.0,0.0,38,0.00,,---,0.00,VWS V14.01,2013-03-22 04:52:00,
2013-03-21 22:58:00,25.7,3.6,29.58,ENE,73,0.0,0.0,38,0.00,,---,0.00,VWS V14.01,2013-03-22 04:58:00,
2013-03-21 23:03:00,25.3,2.1,29.58,ENE,73,0.0,0.0,36,0.00,,---,0.00,VWS V14.01,2013-03-22 05:03:00,
2013-03-21 23:09:00,25.2,2.0,29.58,ENE,73,0.0,0.0,36,0.00,,---,0.00,VWS V14.01,2013-03-22 05:09:00,
2013-03-21 23:14:00,25.2,2.6,29.58,ENE,72,0.0,0.0,37,0.00,,---,0.00,VWS V14.01,2013-03-22 05:14:00,
2013-03-21 23:20:00,25.0,3.0,29.58,ENE,72,0.0,0.0,38,0.00,,---,0.00,VWS V14.01,2013-03-22 05:20:00,
2013-03-21 23:25:00,24.6,2.7,29.58,ENE,72,0.0,0.0,38,0.00,,---,0.00,VWS V14.01,2013-03-22 05:25:00,
2013-03-21 23:32:00,24.4,3.0,29.58,ENE,72,0.0,0.0,39,0.00,,---,0.00,VWS V14.01,2013-03-22 05:32:00,
2013-03-21 23:37:00,24.1,2.2,29.58,ENE,72,0.0,0.0,38,0.00,,---,0.00,VWS V14.01,2013-03-22 05:37:00,
2013-03-21 23:42:00,23.9,2.6,29.58,ENE,64,0.0,0.0,39,0.00,,---,0.00,VWS V14.01,2013-03-22 05:42:00,
2013-03-21 23:47:00,23.7,2.9,29.58,ENE,64,0.0,0.0,40,0.00,,---,0.00,VWS V14.01,2013-03-22 05:47:00,
2013-03-21 23:52:00,23.5,2.8,29.58,ENE,64,0.0,0.0,40,0.00,,---,0.00,VWS V14.01,2013-03-22 05:52:00,
2013-03-21 23:58:00,23.4,2.1,29.58,ENE,64,0.0,0.0,39,0.00,,---,0.00,VWS V14.01,2013-03-22 05:58:00,